Station PSBM1 - 8410140 - Eastport, ME Image indicating link to RSS feed of recent meteorological observations for station PSBM1


Conditions at PSBM1 as of
(2:00 pm EDT)
1800 GMT on 07/24/2024:
     

Click on the graph icon in the table below to see a time series plot of the last five days of that observation.

5-day plot - Wind Direction Wind Direction (WDIR):SSE ( 160 deg true )
5-day plot - Wind Speed Wind Speed (WSPD): 5.1 kts
5-day plot - Wind Gust Wind Gust (GST): 5.1 kts
5-day plot - Atmospheric Pressure Atmospheric Pressure (PRES):30.18 in
5-day plot - Pressure Tendency Pressure Tendency (PTDY):-0.01 in ( Falling )
5-day plot - Air Temperature Air Temperature (ATMP): 61.7 °F
5-day plot - Water Temperature Water Temperature (WTMP): 52.5 °F
5-day plot - Wind Speed at 10 Meters Wind Speed at 10 meters (WSPD10M): 5.8 kts
5-day plot - Wind Speed at 20 Meters Wind Speed at 20 meters (WSPD20M): 5.8 kts
5-day plot -  Wind Speed, Wind Gust and Atmospheric Pressure Combined plot of Wind Speed, Gust, and Air Pressure
NOS Water Level Observation Network Water Level
Previous observations
TIME
(EDT)
5-day plot - Wind Direction
WDIR
 
5-day plot - Wind Speed
WSPD
kts
5-day plot - Wind Gust
GST
kts
5-day plot - Wave Height
WVHT
ft
5-day plot - Dominant Wave Period
DPD
sec
5-day plot - Average Wave Period
APD
sec
5-day plot - Mean Wave Direction
MWD
 
5-day plot - Atmospheric Pressure
PRES
in
5-day plot - Pressure Tendency
PTDY
in
5-day plot - Air Temperature
ATMP
°F
5-day plot - Water Temperature
WTMP
°F
5-day plot - Dew Point
DEWP
°F
5-day plot - Salinity
SAL
psu
5-day plot - Visibility
VIS
nmi
5-day plot - Tide (above MLLW)
TIDE
ft
2024-07-24 01:54 pmSSE 4.1 7.0----30.18- 61.2 53.1----
2024-07-24 01:48 pmSSE 7.0 7.0----30.19- 60.8 53.1----
2024-07-24 01:42 pmSSE 6.0 7.0----30.19- 61.5 52.9----
2024-07-24 01:36 pmSSE 5.1 5.1----30.19- 61.0 52.3----
2024-07-24 01:30 pmSSE 4.1 5.1----30.18- 60.3 51.8----
2024-07-24 01:24 pmSSE 4.1 5.1----30.18- 60.6 51.8----
2024-07-24 01:18 pmSSE 4.1 5.1----30.19- 59.9 51.8----
2024-07-24 01:12 pmSSE 4.1 6.0----30.19- 60.3 52.0----
2024-07-24 01:06 pm S 6.0 7.0----30.19- 60.3 52.0----
2024-07-24 01:00 pm S 7.0 8.0----30.19-0.01 60.8 52.0----
2024-07-24 12:54 pm S 7.0 8.0----30.19- 61.2 52.0----
2024-07-24 12:48 pm S 8.0 8.9----30.19-- 52.2----
2024-07-24 12:42 pm S 7.0 11.1----30.19-- 52.2----
2024-07-24 12:36 pm S 9.9 11.1----30.19-- 52.3----
2024-07-24 12:30 pm S 9.9 11.1----30.19- 59.5 52.3----
2024-07-24 12:24 pmSSE 8.0 9.9----30.19- 60.8 52.7----
2024-07-24 12:18 pm S 5.1 5.1----30.20- 61.9 52.9----
2024-07-24 12:12 pmESE 1.0 1.9----30.19- 61.7 53.1----
2024-07-24 12:06 pmESE 1.0 1.9----30.19- 61.2 53.1----
2024-07-24 12:00 pm SE 1.9 5.1----30.19+0.00 61.0 53.2----
2024-07-24 11:54 am SE 4.1 7.0----30.19- 61.0 53.4----
2024-07-24 11:48 amNNE 1.0 1.9----30.19-- 53.4----
2024-07-24 11:42 am N 1.9 2.9----30.19-- 53.6----
2024-07-24 11:36 am N 2.9 4.1----30.19-- 53.6----
2024-07-24 11:30 am N 2.9 4.1----30.19- 61.0 53.6----
2024-07-24 11:24 am N 1.0 1.9----30.19- 62.6 53.4----
2024-07-24 11:18 amNNW 1.9 4.1----30.19- 60.8 53.4----
2024-07-24 11:12 amNNE 2.9 4.1----30.19- 61.2 53.4----
2024-07-24 11:06 amNNE 1.9 2.9----30.19- 63.7 53.4----
2024-07-24 11:00 am N 1.9 2.9----30.19+0.00 62.2 53.4----
2024-07-24 10:54 am NE 1.9 1.9----30.19- 62.8 53.4----
2024-07-24 10:48 am N 1.9 1.9----30.19- 62.1 53.4----
2024-07-24 10:42 amNNE 1.0 1.9----30.19- 61.5 53.4----
2024-07-24 10:36 am N 1.9 2.9----30.19- 63.9 53.4----
2024-07-24 10:30 amNNE 1.9 2.9----30.19- 63.3 53.4----
2024-07-24 10:24 am N 1.9 2.9----30.19- 61.2 53.4----
2024-07-24 10:18 amNNW 1.9 1.9----30.19- 61.0 53.2----
2024-07-24 10:12 am N 1.0 1.9----30.19- 62.8 53.2----
2024-07-24 10:06 am- 0.0 1.0----30.19- 62.4 53.2----
2024-07-24 10:00 am S 1.0 1.9----30.20+0.02 60.4 53.2----
2024-07-24 09:54 am SE 1.0 1.9----30.19- 60.6 53.1----
2024-07-24 09:48 am SE 1.0 1.9----30.19-- 53.1----
2024-07-24 09:42 amSSE 1.9 1.9----30.20-- 53.1----
2024-07-24 09:36 am S 1.0 2.9----30.20-- 52.9----
2024-07-24 09:30 am- 0.0 1.0----30.19- 62.2 52.9----
2024-07-24 09:24 am N 1.0 1.9----30.19- 62.8 52.9----
2024-07-24 09:18 am N 1.9 1.9----30.19- 62.6 52.7----
2024-07-24 09:12 amNNW 1.0 1.9----30.19- 61.7 52.7----
2024-07-24 09:06 amNNW 1.0 1.0----30.19- 60.8 52.7----
2024-07-24 09:00 am- 0.0 1.0----30.19+0.03 60.6 52.7----
2024-07-24 08:54 am- 0.0 0.0----30.19- 61.7 52.5----
2024-07-24 08:48 am- 0.0 1.0----30.19- 61.2 52.5----
2024-07-24 08:42 am- 0.0 0.0----30.19- 60.4 52.5----
2024-07-24 08:36 am- 0.0 1.9----30.19- 59.5 52.5----
2024-07-24 08:30 am S 1.9 4.1----30.20- 58.1 52.3----
2024-07-24 08:24 amSSE 2.9 5.1----30.20- 57.4 52.3----
2024-07-24 08:18 am- 0.0 1.0----30.20- 59.4 52.3----
2024-07-24 08:12 am- 0.0 0.0----30.20- 59.2 52.3----
2024-07-24 08:06 am- 0.0 0.0----30.19- 57.9 52.2----
2024-07-24 08:00 am- 0.0 1.9----30.19+0.03 57.9 52.2----
2024-07-24 07:54 amNNW 1.9 2.9----30.19- 58.1 52.2----
2024-07-24 07:48 amWNW 1.9 1.9----30.19- 58.3 52.2----
2024-07-24 07:42 am- 0.0 1.0----30.19- 56.7 52.2----
2024-07-24 07:36 am- 0.0 1.0----30.19- 57.2 52.2----
2024-07-24 07:30 am SE 1.9 2.9----30.19- 56.8 52.0----
2024-07-24 07:24 am- 0.0 1.9----30.19- 57.7 52.0----
2024-07-24 07:18 amNNE 1.0 2.9----30.19- 56.7 52.0----
2024-07-24 07:12 am N 1.9 2.9----30.18- 59.2 52.0----
2024-07-24 07:06 am- 0.0 1.0----30.18- 60.3 52.0----
2024-07-24 07:00 am- 0.0 0.0----30.18+0.04 59.0 51.4----
2024-07-24 06:54 am- 0.0 1.0----30.18- 58.8 51.3----
2024-07-24 06:48 am N 1.0 1.9----30.17- 58.1 51.1----
2024-07-24 06:42 am N 1.0 1.0----30.17- 58.6 51.1----
2024-07-24 06:36 am- 0.0 1.0----30.17- 59.4 51.1----
2024-07-24 06:30 am NW 1.0 1.0----30.17- 59.7 51.1----
2024-07-24 06:24 am- 0.0 1.0----30.17- 59.5 51.1----
2024-07-24 06:18 am N 1.0 1.9----30.17- 59.2 51.1----
2024-07-24 06:12 am- 0.0 1.9----30.17- 59.2 51.1----
2024-07-24 06:06 am- 0.0 1.9----30.17- 59.2 51.1----
2024-07-24 06:00 amSSW 1.0 1.9----30.17+0.03 60.4 51.1----
2024-07-24 05:54 am S 1.9 2.9----30.16- 59.9 51.1----
2024-07-24 05:48 am S 2.9 4.1----30.16- 59.9 51.1----
2024-07-24 05:42 am S 1.9 4.1----30.16- 59.4 50.9----
2024-07-24 05:36 am S 1.9 2.9----30.16- 59.9 50.9----
2024-07-24 05:30 am- 0.0 1.9----30.16- 59.4 50.9----
2024-07-24 05:24 am S 1.0 1.0----30.16- 58.6 50.9----
2024-07-24 05:18 am- 0.0 2.9----30.15- 58.1 50.9----
2024-07-24 05:12 am- 0.0 2.9----30.15- 57.7 50.9----
2024-07-24 05:06 am- 0.0 4.1----30.16- 58.3 50.9----
2024-07-24 05:00 am- 0.0 1.0----30.16+0.03 57.9 50.9----
2024-07-24 04:54 am- 0.0 5.1----30.15- 57.4 50.9----
2024-07-24 04:48 am N 1.9 4.1----30.15- 57.6 50.9----
2024-07-24 04:42 am NW 1.9 1.9----30.15- 58.6 50.9----
2024-07-24 04:36 am- 0.0 1.0----30.15- 57.6 50.9----
2024-07-24 04:30 am- 0.0 1.0----30.15- 57.2 50.9----
2024-07-24 04:24 am S 1.0 1.9----30.15- 57.7 50.9----
2024-07-24 04:18 amSSE 1.9 2.9----30.15- 57.9 50.9----
2024-07-24 04:12 am S 1.9 4.1----30.14- 57.9 50.9----
2024-07-24 04:06 amSSE 1.9 1.9----30.14- 58.3 50.9----
2024-07-24 04:00 am- 0.0 2.9----30.14+0.02 58.1 50.9----
2024-07-24 03:54 amSSE 2.9 4.1----30.14- 57.0 50.9----
2024-07-24 03:48 amSSE 2.9 4.1----30.14- 57.0 50.9----
2024-07-24 03:42 am S 2.9 2.9----30.14- 57.2 50.9----
2024-07-24 03:36 amSSE 2.9 2.9----30.14- 57.7 50.9----
2024-07-24 03:30 amSSE 1.9 1.9----30.14- 57.7 50.9----
2024-07-24 03:24 am SE 1.9 2.9----30.14- 56.7 50.9----
2024-07-24 03:18 am SE 1.9 2.9----30.14- 56.5 50.9----
2024-07-24 03:12 amSSE 1.9 2.9----30.14- 56.8 50.7----
2024-07-24 03:06 amSSE 1.9 5.1----30.14- 57.4 50.7----
2024-07-24 03:00 amWNW 1.0 2.9----30.14+0.01 60.3 50.7----
2024-07-24 02:54 am N 1.9 2.9----30.14- 59.7 50.7----
2024-07-24 02:48 am- 0.0 1.0----30.14- 60.1 50.7----
2024-07-24 02:42 am- 0.0 1.0----30.14- 61.5 50.7----
2024-07-24 02:36 am- 0.0 1.0----30.14- 61.0 50.7----
2024-07-24 02:30 am- 0.0 1.9----30.14- 60.6 50.7----
2024-07-24 02:24 amWSW 1.9 2.9----30.13- 62.1 50.7----
2024-07-24 02:18 am SW 1.9 2.9----30.13- 61.7 50.7----
2024-07-24 02:12 amSSW 1.0 2.9----30.13- 61.2 50.7----
2024-07-24 02:06 am S 1.9 1.9----30.13- 60.8 50.7----
2024-07-24 02:00 amSSW 1.9 1.9----30.13+0.00 60.1 50.7----
2024-07-24 01:54 amSSW 1.0 1.9----30.12- 58.8 50.9----
2024-07-24 01:48 amWSW 1.0 1.9----30.12- 57.6 50.9----
2024-07-24 01:42 amSSW 1.0 2.9----30.12- 56.7 51.1----
2024-07-24 01:36 am SE 1.9 4.1----30.12- 55.4 51.1----
2024-07-24 01:30 amENE 1.9 4.1----30.12- 56.5 51.1----
2024-07-24 01:24 amNNW 1.0 1.0----30.12- 57.2 51.3----
2024-07-24 01:18 amNNW 1.0 1.0----30.12- 56.5 51.3----
2024-07-24 01:12 am- 0.0 1.0----30.12- 56.1 51.3----
2024-07-24 01:06 am- 0.0 1.9----30.12- 55.8 51.4----
2024-07-24 01:00 am N 1.9 1.9----30.12+0.00 55.8 51.4----
2024-07-24 12:54 am- 0.0 1.9----30.12- 56.5 51.4----
2024-07-24 12:48 am- 0.0 1.0----30.12- 59.5 51.4----
2024-07-24 12:42 am- 0.0 1.0----30.12- 60.3 51.4----
2024-07-24 12:36 am S 1.0 1.9----30.12- 59.0 51.4----
2024-07-24 12:30 amSSW 1.0 1.0----30.12- 59.2 51.8----
2024-07-24 12:24 am- 0.0 0.0----30.12- 57.2 51.8----
2024-07-24 12:18 am- 0.0 1.0----30.12- 57.2 51.8----
2024-07-24 12:12 am- 0.0 1.0----30.12- 56.5 52.0----
2024-07-24 12:06 amSSE 1.0 1.9----30.12- 56.1 52.2----
2024-07-24 12:00 am-------30.13+0.03 56.5 52.2----
2024-07-23 11:54 pm-------30.13- 56.8 52.5----
2024-07-23 11:48 pmSSE 1.9 1.9----30.13- 57.9 52.7----
2024-07-23 11:42 pmSSE 1.9 1.9----30.13- 59.2 52.9----
2024-07-23 11:36 pm S 1.9 2.9----30.13- 59.9 53.1----
2024-07-23 11:30 pm S 1.0 1.0----30.13- 59.7 53.2----
2024-07-23 11:24 pm- 0.0 1.0----30.13- 59.5 53.4----
2024-07-23 11:18 pm- 0.0 0.0----30.13- 58.8 53.4----
2024-07-23 11:12 pm- 0.0 0.0----30.13- 59.0 53.4----
2024-07-23 11:06 pm- 0.0 1.9----30.13- 58.6 53.4----
2024-07-23 11:00 pm NW 1.0 1.9----30.13+0.05 58.3 53.4----
2024-07-23 10:54 pmNNW 1.0 1.9----30.13- 57.6 53.4----
2024-07-23 10:48 pmNNW 1.0 1.9----30.12- 57.2 53.4----
2024-07-23 10:42 pm- 0.0 1.0----30.12- 56.8 53.4----
2024-07-23 10:36 pm NE 1.0 1.0----30.12- 58.6 53.4----
2024-07-23 10:30 pm- 0.0 0.0----30.12- 59.9 53.4----
2024-07-23 10:24 pm- 0.0 1.0----30.12- 60.1 53.4----
2024-07-23 10:18 pm- 0.0 1.9----30.12- 60.1 53.4----
2024-07-23 10:12 pmNNW 1.0 1.9----30.12- 59.7 53.4----
2024-07-23 10:06 pmNNW 1.9 2.9----30.11- 58.5 53.4----
2024-07-23 10:00 pmNNW 1.9 1.9----30.11+0.05 58.5 53.4----
2024-07-23 09:54 pmNNW 1.9 2.9----30.11- 58.8 53.4----
2024-07-23 09:48 pmNNW 2.9 2.9----30.11- 57.7 53.4----
2024-07-23 09:42 pm NW 1.0 1.0----30.11- 56.8 53.4----
2024-07-23 09:36 pm- 0.0 0.0----30.11- 58.3 53.2----
2024-07-23 09:30 pm- 0.0 0.0----30.11- 58.6 53.2----
2024-07-23 09:24 pm- 0.0 1.9----30.11- 59.2 53.2----
2024-07-23 09:18 pm N 1.0 1.9----30.11- 58.3 53.2----
2024-07-23 09:12 pm- 0.0 2.9----30.11- 57.2 53.2----
2024-07-23 09:06 pmNNW 2.9 4.1----30.10- 57.4 53.2----
2024-07-23 09:00 pmNNW 1.9 2.9----30.10+0.05 58.6 53.2----
2024-07-23 08:54 pm N 1.9 1.9----30.10- 59.7 53.1----
2024-07-23 08:48 pmNNW 1.0 1.9----30.10- 60.4 53.1----
2024-07-23 08:42 pmNNW 1.9 2.9----30.09- 60.1 53.1----
2024-07-23 08:36 pmNNW 1.9 2.9----30.09- 60.4 53.1----
2024-07-23 08:30 pm N 1.9 1.9----30.09- 59.7 53.1----
2024-07-23 08:24 pmNNW 1.0 1.9----30.09- 59.9 52.9----
2024-07-23 08:18 pm N 1.0 2.9----30.09- 59.9 52.9----
2024-07-23 08:12 pmNNW 2.9 4.1----30.08- 58.8 52.9----
2024-07-23 08:06 pmNNW 2.9 4.1----30.08- 59.0 52.9----
2024-07-23 08:00 pm N 2.9 2.9----30.08+0.04 59.7 52.7----
2024-07-23 07:54 pm N 1.0 1.9----30.08- 61.2 52.7----
2024-07-23 07:48 pm- 0.0 2.9----30.08-- 52.7----
2024-07-23 07:42 pm SW 1.9 2.9----30.07-- 52.7----
2024-07-23 07:36 pm S 1.0 2.9----30.07-- 52.7----
2024-07-23 07:30 pm SE 2.9 2.9----30.07- 61.5 52.7----
2024-07-23 07:24 pmSSE 1.9 1.9----30.07- 62.4 52.7----
2024-07-23 07:18 pm S 1.0 2.9----30.07- 62.6 52.5----
2024-07-23 07:12 pmSSE 1.9 2.9----30.07- 62.6 52.5----
2024-07-23 07:06 pm- 0.0 1.9----30.07- 62.6 52.5----
2024-07-23 07:00 pm- 0.0 1.0----30.07+0.03------
2024-07-23 06:54 pm- 0.0 1.9----30.06-------
2024-07-23 06:48 pmENE 1.9 2.9----30.06- 62.6 51.8----
2024-07-23 06:42 pm SE 1.0 1.9----30.06- 64.2 51.8----
2024-07-23 06:36 pm S 1.9 2.9----30.06- 65.3 51.8----
2024-07-23 06:30 pm SW 1.9 4.1----30.06- 66.4 51.8----
2024-07-23 06:24 pmWNW 2.9 4.1----30.06- 64.8 51.8----
2024-07-23 06:18 pmNNW 2.9 4.1----30.06- 62.6 51.8----
2024-07-23 06:12 pm- 0.0 1.0----30.06- 63.5 51.8----
2024-07-23 06:06 pm S 1.0 1.9----30.05- 63.9 51.8----
2024-07-23 06:00 pm S 1.0 2.9----30.05+0.01 62.6 51.8----
2024-07-23 05:54 pmSSE 1.0 1.9----30.05- 63.3 51.8----
2024-07-23 05:48 pmSSW 1.9 4.1----30.05- 64.4 51.8----
2024-07-23 05:42 pm S 4.1 4.1----30.05- 64.6 51.6----
2024-07-23 05:36 pm S 2.9 2.9----30.05- 62.8 51.6----
2024-07-23 05:30 pmSSE 2.9 2.9----30.04-- 51.6----
2024-07-23 05:24 pmSSE 2.9 5.1----30.04-- 51.8----
2024-07-23 05:18 pmSSE 4.1 5.1----30.04- 65.5 51.8----
2024-07-23 05:12 pm S 2.9 4.1----30.04- 66.0 51.8----
2024-07-23 05:06 pm S 2.9 5.1----30.04- 66.0 51.8----
2024-07-23 05:00 pm S 2.9 6.0----30.04+0.00 65.3 51.8----
2024-07-23 04:54 pm S 5.1 8.0----30.04- 65.7 51.8----
2024-07-23 04:48 pm S 5.1 7.0----30.04- 65.1 51.8----
2024-07-23 04:42 pm S 5.1 7.0----30.04- 63.5 51.8----
2024-07-23 04:36 pm S 6.0 7.0----30.04- 62.6 51.8----
2024-07-23 04:30 pm S 4.1 6.0----30.04- 62.6 51.6----
2024-07-23 04:24 pm S 6.0 8.0----30.04- 62.6 51.4----
2024-07-23 04:18 pm S 7.0 8.0----30.04- 61.5 51.8----
2024-07-23 04:12 pm S 6.0 7.0----30.03- 60.6 51.6----
2024-07-23 04:06 pmSSE 7.0 8.0----30.03- 59.0 51.6----
2024-07-23 04:00 pmSSE 8.9 9.9----30.03-0.02 57.9 51.8----
2024-07-23 03:54 pmSSE 8.9 8.9----30.04- 57.6 51.8----
2024-07-23 03:48 pmSSE 6.0 7.0----30.04- 57.7 51.6----
2024-07-23 03:42 pmSSE 8.0 8.9----30.04- 57.4 51.6----
2024-07-23 03:36 pmSSE 8.9 8.9----30.04- 58.5 51.8----
2024-07-23 03:30 pmSSE 8.0 8.9----30.04- 58.3 51.8----
2024-07-23 03:24 pmSSE 8.9 9.9----30.05- 57.9 51.8----
2024-07-23 03:18 pmSSE 8.9 9.9----30.04- 58.6 51.8----
2024-07-23 03:12 pmSSE 9.9 12.0----30.04- 58.3 52.0----
2024-07-23 03:06 pmSSE 8.9 12.0----30.04- 57.2 52.0----
2024-07-23 03:00 pmSSE 12.0 13.0----30.04-0.01 57.9 52.0----
2024-07-23 02:54 pm S 12.0 12.0----30.04- 58.6 51.6----
2024-07-23 02:48 pm S 9.9 12.0----30.04- 58.3 51.1----
2024-07-23 02:42 pmSSE 12.0 14.0----30.04- 57.9 51.1----
2024-07-23 02:36 pmSSE 13.0 15.0----30.04- 58.3 51.1----
2024-07-23 02:30 pm S 12.0 15.9----30.04- 58.3 51.4----
2024-07-23 02:24 pmSSE 15.0 17.1----30.04- 59.9 51.3----
2024-07-23 02:18 pmSSE 14.0 15.9----30.04- 59.0 51.6----
2024-07-23 02:12 pmSSE 13.0 14.0----30.04- 58.1 51.6----
2024-07-23 02:06 pmSSE 12.0 13.0----30.04- 58.3 51.6----
2024-07-23 02:00 pm S 11.1 12.0----30.04-0.02 59.7 51.6----
2024-07-23 01:54 pm S 11.1 12.0----30.04- 60.1 51.6----